Theta_e
337 335 335 336 337 337 337 336 335 334 334 334 332 332 334 334 335 338 339 339 339 338 337 337 338 336 335 333 331 328 329 329 327 326 327 329 330 330 330 331 331 331 331 331 331 332 331 330 331 332 332 333 333 333 331 330 330 330 330 329 329 329 329 328 328 327 328 329 329 328 328 328 329 328 326 324 322 320 319 319 319 322 324 327 327
334 335 335 336 336 336 335 334 334 334 334 335 334 333 334 336 336 338 339 338 338 336 333 335 336 335 333 331 328 328 329 328 326 325 327 328 330 330 330 330 330 330 330 330 330 331 330 331 331 331 332 332 331 331 331 330 330 329 328 328 328 329 329 328 327 327 329 329 329 329 329 328 328 328 326 323 321 320 320 321 321 322 325 327 327
334 334 335 336 336 335 334 332 333 333 334 335 334 332 334 336 337 337 337 337 337 335 332 332 333 332 331 328 327 328 328 327 325 325 326 327 328 329 329 329 330 330 329 329 329 330 330 330 330 330 332 331 331 331 330 331 330 328 327 327 327 328 328 327 327 327 329 329 329 329 329 328 327 328 326 323 320 321 322 322 322 322 323 325 324
335 334 334 336 336 335 334 333 333 332 331 332 333 332 332 335 337 337 336 336 336 333 331 331 330 330 329 327 327 327 328 327 326 325 326 327 328 327 328 327 328 328 328 328 329 329 330 330 330 331 331 330 330 330 330 330 329 328 327 326 326 328 328 327 327 327 328 328 328 328 327 327 326 326 327 324 321 321 321 321 321 321 321 321 321
335 334 334 335 336 336 334 334 333 332 331 331 331 331 333 335 336 337 336 336 334 330 330 330 329 329 328 328 328 327 327 328 326 325 324 325 326 326 326 325 325 324 324 326 327 327 327 328 328 329 329 329 329 329 329 329 329 328 327 326 326 328 329 328 328 327 327 327 327 327 327 327 326 325 326 324 320 318 318 317 316 316 317 317 318
335 334 334 335 336 336 335 334 332 332 332 332 332 332 333 335 336 336 337 335 331 329 329 329 328 328 327 328 328 328 328 328 326 324 322 322 322 322 322 322 322 321 321 322 324 324 324 324 326 326 328 328 328 328 328 329 329 329 328 327 327 328 328 328 327 327 327 326 324 325 326 325 326 326 326 324 319 317 317 314 313 313 314 314 315
334 334 333 334 335 335 336 335 332 331 332 333 333 333 334 335 335 336 336 333 329 328 328 327 327 326 326 326 327 327 326 326 324 322 321 320 320 320 320 319 319 319 319 321 322 322 321 322 323 325 326 327 328 327 328 329 329 328 328 328 328 327 327 328 327 326 327 326 324 324 325 322 322 325 325 324 322 319 316 313 312 312 311 312 312
333 333 332 333 334 334 335 335 333 332 333 333 333 333 334 333 334 335 334 331 328 327 326 325 325 325 324 326 326 325 323 323 322 320 320 319 319 319 318 318 318 318 318 320 322 321 320 319 320 323 324 325 327 328 327 328 327 328 327 327 327 327 327 328 327 326 327 327 325 326 326 323 323 324 324 324 323 318 314 312 311 310 309 310 310
333 333 332 333 334 334 334 334 333 333 333 332 332 332 332 331 331 331 331 329 327 326 325 324 324 324 324 325 326 324 321 321 320 319 319 319 319 318 318 318 317 318 317 318 322 321 319 317 318 322 324 325 326 327 327 327 328 328 327 327 327 326 327 328 327 327 327 327 327 327 326 326 325 324 323 323 320 316 313 313 313 311 310 310 309
332 331 332 333 333 332 332 332 331 328 328 328 328 329 329 328 328 328 328 327 326 324 323 323 324 323 322 324 325 322 321 320 319 319 318 318 318 318 317 318 317 318 317 317 320 320 318 317 318 322 325 324 325 325 326 327 327 327 327 327 327 326 326 328 328 328 327 327 327 326 324 324 324 322 319 317 315 314 313 314 315 313 312 311 310
330 329 330 332 330 329 329 330 327 325 324 325 324 324 325 324 325 325 325 325 324 323 322 322 323 322 321 323 323 322 321 320 319 318 318 318 318 317 317 317 317 317 317 317 318 318 317 318 319 322 323 323 323 324 324 324 325 325 325 326 326 327 327 327 327 327 327 327 326 324 321 320 319 317 315 312 310 312 313 314 315 314 313 311 310
329 327 327 328 328 328 327 327 326 324 324 324 323 323 323 322 321 322 323 323 322 321 322 322 322 321 321 322 323 322 321 320 318 317 316 317 317 317 317 317 316 316 316 316 317 317 317 316 318 320 321 321 322 322 321 322 322 322 323 324 325 326 326 327 327 326 325 324 321 318 315 315 314 312 312 311 310 311 313 314 314 313 312 311 310
327 326 326 326 326 327 327 326 326 325 324 324 324 325 325 323 322 321 321 321 321 320 321 321 321 322 322 322 323 322 320 319 318 315 314 315 316 316 316 315 315 315 316 316 316 316 316 316 318 320 320 320 320 320 319 321 320 318 319 320 322 323 324 324 324 322 320 317 313 311 311 311 309 307 307 307 308 310 312 314 313 313 313 310 309
326 324 324 324 325 327 327 327 326 325 325 325 325 326 326 325 324 322 321 320 319 319 320 321 320 321 321 322 322 321 320 319 316 314 313 314 315 315 315 315 315 315 316 316 315 315 316 317 319 319 319 319 319 319 319 320 318 315 315 316 316 317 318 318 317 315 313 311 309 307 306 305 303 303 304 305 307 310 311 313 312 313 313 310 309
324 323 323 324 327 327 326 325 324 324 325 325 326 327 326 326 326 324 322 321 320 318 318 319 319 320 321 322 321 320 320 317 315 314 314 314 315 315 315 314 314 315 316 315 313 313 314 316 318 318 318 317 316 317 317 316 315 315 314 312 311 312 312 311 311 309 307 306 305 303 302 301 301 302 305 307 309 309 310 312 313 313 312 311 310
323 323 324 326 328 328 325 325 324 323 324 324 325 327 327 327 326 325 323 321 319 318 317 319 319 320 321 321 320 319 318 316 315 315 315 315 315 315 315 315 314 314 313 312 311 311 311 315 317 316 316 315 314 314 314 313 313 313 310 308 308 308 307 306 304 303 302 301 301 300 301 303 303 305 306 307 308 307 308 310 311 312 312 311 310
324 324 325 327 329 328 324 325 326 324 324 323 325 326 327 328 327 324 322 320 320 319 318 318 319 320 320 320 319 317 316 316 315 315 314 314 316 316 315 315 314 313 312 311 311 309 308 311 312 311 311 310 309 310 310 311 310 308 306 305 306 305 303 302 300 300 299 300 300 300 302 305 306 306 307 307 307 307 307 308 310 311 311 310 310
324 324 325 326 329 327 323 323 323 322 322 322 323 324 325 327 326 324 322 321 320 319 318 318 318 319 320 319 318 317 316 316 316 316 313 312 314 316 316 315 313 313 312 311 311 309 307 308 308 308 306 303 302 303 305 306 305 303 303 304 304 303 301 301 301 301 301 301 301 303 305 307 307 307 307 306 306 306 307 308 308 309 311 310 311
323 322 321 323 325 325 323 322 322 321 321 321 322 322 323 325 324 323 323 322 319 318 317 317 318 319 321 319 318 317 315 313 313 314 312 310 313 316 316 314 312 311 312 312 311 309 308 308 308 307 305 302 301 300 301 301 301 301 302 303 303 303 303 304 304 303 303 304 304 305 306 307 307 306 306 306 306 306 307 309 308 308 309 309 311
320 320 320 321 322 323 322 322 322 322 322 321 321 321 322 324 324 323 322 320 318 318 317 317 318 319 320 319 317 316 313 310 311 312 312 313 315 316 316 314 311 309 310 311 311 310 309 309 309 308 307 306 305 302 300 301 302 302 302 302 303 303 304 305 305 304 304 305 306 306 307 307 306 306 306 306 305 305 306 308 308 308 308 308 309
319 320 320 321 323 323 322 321 321 321 322 321 321 321 323 324 323 323 322 320 319 318 318 318 319 319 319 318 317 317 313 312 312 312 313 316 317 316 316 315 312 309 308 309 310 310 310 310 310 309 310 310 309 306 304 304 305 306 305 305 303 303 304 304 305 304 304 304 305 306 305 305 305 305 305 305 305 306 306 306 307 308 308 308 308
318 318 317 319 321 322 322 322 322 322 322 321 322 323 323 323 323 322 321 320 319 319 318 318 318 318 319 319 318 316 315 313 313 312 314 316 316 316 317 316 314 310 308 308 308 309 310 311 311 310 310 311 311 310 307 306 307 308 309 309 307 306 305 305 305 305 304 304 305 305 305 304 304 303 304 306 306 306 306 306 307 308 307 306 306
315 314 313 314 315 316 317 318 319 321 322 322 322 322 323 323 323 322 322 321 321 319 318 318 319 318 318 318 316 316 315 315 314 313 315 316 316 316 317 317 315 312 310 309 309 308 310 311 311 310 310 311 311 311 310 308 308 308 309 310 309 308 308 308 308 307 306 305 306 306 306 305 305 305 305 306 305 306 307 307 306 306 306 304 304
311 310 310 311 310 310 311 312 314 317 319 321 322 322 322 322 322 322 322 321 321 320 319 318 318 318 317 316 316 315 315 315 314 314 315 316 317 317 317 317 316 313 311 311 310 309 309 311 311 310 310 311 311 311 311 310 309 308 308 309 309 310 309 309 309 309 308 308 307 307 307 306 306 306 306 306 305 305 306 306 306 305 304 304 303
308 308 308 308 307 307 308 309 310 313 315 318 320 321 322 322 321 322 322 322 321 320 320 318 318 318 317 316 316 315 315 314 314 314 315 317 317 317 317 317 317 315 313 312 311 310 310 311 311 311 310 310 310 310 310 310 310 309 309 309 309 310 310 310 309 310 309 309 309 308 308 307 307 307 306 306 306 306 306 306 306 305 304 304 303
307 308 307 307 307 306 306 306 307 309 311 315 317 319 320 321 321 320 320 321 321 320 320 319 318 318 318 317 316 315 314 314 314 315 316 316 317 317 317 317 317 317 314 313 312 311 311 311 312 312 311 310 310 310 310 310 311 311 312 311 311 311 311 311 310 310 310 310 310 310 309 309 309 308 307 307 307 306 306 306 306 305 304 304 303
306 307 307 306 307 307 307 306 306 306 307 310 313 316 318 319 320 320 319 320 320 320 320 318 318 318 318 318 316 315 314 314 314 315 315 316 316 317 317 317 317 317 315 314 313 312 312 312 313 313 312 313 313 313 312 312 313 314 314 314 314 314 314 313 313 312 312 312 311 311 310 309 309 309 309 308 307 307 306 306 306 305 305 304 303
305 305 306 306 306 307 307 307 306 305 305 306 308 312 315 317 318 319 320 320 319 319 319 319 318 318 318 318 317 316 315 314 314 314 315 316 316 317 317 317 317 316 316 315 314 313 313 313 313 313 313 314 314 313 314 314 314 314 315 315 315 316 316 316 316 316 315 315 315 314 313 313 312 311 311 310 309 307 307 307 306 305 305 304 303
305 305 305 305 305 306 307 307 306 306 306 305 305 307 310 313 316 318 319 320 320 320 319 319 319 319 319 319 318 317 316 315 315 315 315 316 316 316 317 317 317 316 316 315 315 314 314 314 314 314 314 314 314 314 314 314 314 314 313 314 315 316 316 316 316 316 316 314 314 315 316 315 315 314 313 312 311 309 307 307 306 306 305 304 303
303 303 304 304 305 306 306 306 306 306 306 305 305 304 305 307 312 315 316 317 319 320 320 320 320 320 320 319 318 318 317 316 316 316 317 316 316 316 316 316 316 316 316 316 315 315 315 315 315 315 315 315 315 315 314 313 314 313 312 313 314 315 316 316 316 316 316 314 314 315 316 315 315 316 315 315 314 312 309 307 306 307 306 304 303
300 301 302 302 303 305 305 305 305 305 305 305 305 305 304 304 306 310 314 315 317 318 318 319 319 319 319 318 318 318 317 317 317 317 317 317 316 316 315 316 316 316 316 316 315 315 315 315 315 315 315 316 316 315 314 313 313 314 313 312 313 315 316 317 317 317 317 317 317 317 317 317 317 317 316 316 316 314 311 307 306 306 306 304 303
299 300 300 300 301 303 304 303 303 303 303 303 303 303 304 303 304 305 308 312 314 315 317 318 318 318 318 318 318 318 318 318 318 318 317 317 316 316 316 316 316 316 316 315 315 316 316 315 315 314 315 316 316 314 313 313 314 315 314 314 315 316 314 314 315 316 316 317 317 317 317 317 317 317 317 316 315 315 312 307 305 305 304 303 302
298 299 299 299 300 301 302 302 302 302 301 301 301 301 301 302 303 303 304 306 308 310 313 315 316 317 317 317 318 318 318 318 318 318 318 317 317 316 316 316 316 316 315 315 315 315 315 315 315 314 315 316 316 314 313 314 315 315 315 315 314 311 308 309 312 314 315 315 315 315 315 316 316 315 315 314 313 312 311 307 305 304 302 301 301
298 298 299 300 300 300 300 300 300 300 299 299 299 299 299 301 302 303 304 304 304 305 307 309 312 314 316 316 317 317 317 318 317 317 317 317 317 316 316 316 316 316 315 315 315 314 314 315 314 315 316 316 315 314 313 314 315 316 315 312 309 307 308 311 312 312 313 313 313 314 314 313 313 313 312 311 310 309 308 306 304 302 300 300 301
298 298 299 299 299 300 300 299 298 298 298 298 298 298 299 300 301 302 303 303 304 304 304 305 307 309 312 314 315 316 317 317 317 317 317 317 317 316 316 316 316 316 315 315 315 315 315 315 315 316 316 315 314 314 314 315 316 315 311 307 306 307 309 309 310 310 310 311 311 312 312 311 310 310 309 308 307 307 307 304 302 300 299 300 300
298 298 299 298 298 298 299 298 297 297 297 298 298 298 298 299 300 300 301 302 303 303 303 303 304 304 306 308 311 313 315 316 317 317 317 317 317 316 316 316 315 315 315 315 315 315 316 316 316 316 315 315 315 315 315 316 315 311 308 306 306 307 307 308 309 309 309 309 309 309 309 308 307 306 306 305 305 305 304 302 300 299 299 299 299
298 298 298 297 296 297 297 297 297 297 297 298 298 298 298 298 298 299 300 301 302 302 302 302 302 303 303 304 306 308 311 313 314 315 316 316 317 316 316 316 315 315 315 315 315 316 316 317 316 315 315 316 315 316 316 315 312 309 307 307 307 308 307 308 309 308 308 308 307 308 307 306 305 304 303 303 302 302 301 300 300 299 299 299 299
297 297 297 297 296 297 297 297 298 298 298 298 298 298 298 299 299 298 299 300 301 301 300 301 301 301 302 303 304 305 308 311 312 313 314 315 316 316 316 316 315 315 315 315 315 315 316 316 315 315 315 315 315 316 315 313 310 309 308 308 308 308 308 308 308 307 307 306 305 305 305 305 304 303 303 303 302 301 300 300 300 299 299 299 298
297 297 297 297 296 296 297 297 297 297 296 297 297 298 299 299 299 298 299 300 300 300 299 299 300 300 301 302 303 303 305 308 311 313 314 314 315 316 316 316 316 316 316 315 314 314 314 314 314 315 315 315 316 315 313 311 310 310 309 308 308 308 308 308 307 306 305 304 304 303 303 303 303 302 302 302 302 301 301 300 300 300 300 298 297
296 296 296 295 295 295 295 296 296 295 295 295 296 297 298 299 299 299 299 300 299 298 298 298 299 299 300 301 302 303 304 305 308 311 313 314 314 314 315 315 315 314 314 313 313 312 313 313 314 315 315 315 315 313 312 311 311 310 309 309 308 308 308 308 306 305 303 303 302 302 302 301 301 301 301 301 301 301 300 300 299 300 299 297 296
295 295 294 295 295 294 294 295 294 294 293 294 295 296 298 298 298 299 299 299 298 298 298 298 298 299 299 300 301 302 302 303 305 307 309 310 311 311 310 310 312 312 311 311 311 312 311 311 312 314 314 314 313 312 311 311 310 310 310 309 308 308 308 307 306 303 302 301 301 301 300 300 300 301 300 300 300 299 299 298 298 297 297 295 295
294 294 294 294 294 294 294 294 293 293 293 293 294 295 296 297 298 298 298 298 297 297 298 298 298 298 299 299 300 301 302 302 303 304 306 307 308 307 307 308 309 309 309 309 310 310 311 311 312 313 313 312 312 312 311 311 310 310 310 309 308 308 307 306 305 303 302 301 301 300 300 299 299 299 299 298 298 297 297 296 295 295 295 294 294
293 293 293 293 293 293 293 293 293 292 292 293 293 294 295 296 296 297 297 296 297 297 297 297 298 298 298 298 299 300 300 301 302 303 304 305 306 306 306 306 306 307 307 307 308 309 310 310 311 312 312 312 311 311 310 310 310 310 309 308 308 307 306 305 304 303 302 301 300 299 298 298 297 297 297 297 296 295 295 294 294 294 293 293 293
293 293 292 292 292 292 292 292 292 292 292 292 292 293 294 294 295 295 295 295 295 296 296 296 297 298 298 298 298 299 299 300 301 302 303 304 305 305 305 306 305 306 306 306 306 306 306 307 309 310 311 311 310 310 309 309 309 308 307 306 306 305 304 303 303 302 301 300 299 298 297 296 296 296 296 295 295 294 294 293 293 293 293 292 293
292 292 291 291 292 292 292 292 292 292 292 292 292 292 293 293 293 294 294 294 294 294 295 295 296 297 297 298 298 298 299 299 300 301 301 302 304 305 305 305 305 305 305 305 304 304 304 305 307 308 309 309 309 308 307 306 305 305 304 304 304 303 302 302 301 301 299 298 297 297 296 296 296 295 294 294 293 293 293 293 292 292 292 292 292
292 291 291 291 291 291 291 291 291 291 291 291 291 291 292 292 292 292 292 292 293 293 294 294 295 295 296 297 297 298 298 298 298 299 300 301 302 304 305 305 305 305 305 304 304 304 305 305 306 306 307 307 306 305 304 303 302 302 302 302 302 301 300 300 299 298 297 297 296 296 295 295 294 293 293 293 293 292 292 292 292 291 292 292 292
291 291 291 291 291 291 291 291 291 291 291 291 291 291 291 291 291 291 291 292 292 292 293 293 294 294 295 296 297 297 297 297 297 298 299 300 301 302 303 305 305 305 305 305 305 304 304 305 305 305 305 304 303 301 301 300 300 300 301 300 299 299 298 297 297 297 296 295 295 294 294 293 293 292 292 292 292 292 291 291 291 291 291 290 290
291 291 291 290 290 290 291 291 291 291 291 291 291 291 291 291 291 291 291 291 291 292 293 293 294 294 295 296 297 297 297 298 298 298 298 298 299 300 301 303 304 304 304 304 304 304 304 304 305 304 303 301 300 300 301 302 302 302 301 299 298 298 297 296 296 295 295 294 294 293 293 292 292 292 292 292 292 291 291 290 290 290 290 289 289
291 291 291 290 290 290 290 291 291 292 292 292 292 292 292 292 292 292 291 291 291 291 292 293 293 294 295 296 296 297 297 298 299 298 297 297 298 299 300 300 301 302 303 304 304 304 304 303 303 303 302 301 301 302 303 305 305 304 302 301 299 298 297 296 295 295 294 294 293 293 292 292 292 292 292 292 292 291 291 290 290 289 289 289 289
291 291 290 290 290 290 290 291 291 292 292 292 292 292 292 292 292 292 292 291 291 291 291 292 293 294 295 296 296 297 298 298 299 299 299 298 298 298 299 299 298 299 300 302 304 304 303 302 302 302 302 302 302 302 304 305 304 302 301 301 299 298 296 295 294 294 294 293 293 293 293 292 292 293 292 292 292 291 291 290 289 289 289 289 288
291 290 290 290 290 291 291 291 292 292 292 292 292 292 293 292 292 292 292 292 291 291 291 291 293 293 294 294 295 296 298 298 299 299 299 299 298 298 298 298 298 298 299 300 302 302 301 301 302 302 302 303 302 303 304 304 301 299 298 298 297 296 295 295 295 294 293 293 293 293 293 292 292 292 292 291 291 290 290 290 289 289 289 288 288
Wind_Speed
10 11 13 13 13 14 16 16 17 18 19 18 20 25 25 24 24 22 22 20 18 18 17 15 13 12 12 11 10 9 7 7 6 5 5 5 5 6 6 6 5 5 4 3 4 5 5 4 4 4 3 3 3 3 4 5 7 8 9 9 9 7 6 5 6 7 6 5 3 2 1 1 1 1 1 2 3 4 3 3 3 4 5 6 6
9 10 12 13 12 14 15 15 18 20 21 21 21 22 22 23 24 22 22 21 20 20 19 19 18 17 15 13 12 10 9 8 7 6 5 5 6 6 6 7 6 7 6 5 4 4 5 5 4 3 2 3 3 3 4 5 6 8 9 9 8 7 6 6 7 7 6 4 4 3 2 2 1 2 2 3 4 5 4 3 3 3 3 3 4
10 10 12 14 13 14 13 14 19 21 22 23 23 23 23 23 23 22 22 22 21 21 21 20 19 18 16 14 13 11 10 9 7 6 6 6 7 7 7 8 7 7 8 8 7 6 6 5 5 4 3 4 5 4 4 5 6 7 8 8 8 7 5 5 7 6 4 5 4 3 2 2 3 3 4 6 7 6 5 4 3 3 1 2 3
11 11 12 14 15 14 13 17 22 21 21 23 24 23 23 24 24 23 23 23 23 23 22 21 20 18 15 14 13 11 11 10 8 7 8 7 8 9 9 9 9 8 8 9 8 8 7 7 6 5 4 5 5 5 4 4 6 7 7 7 8 7 6 5 7 6 5 6 4 2 1 1 2 4 5 8 9 9 9 7 4 3 3 2 3
12 12 13 13 15 16 16 20 21 19 21 26 26 26 26 26 25 24 24 25 25 24 24 22 20 19 15 14 13 11 10 10 8 9 9 9 9 10 10 10 9 8 8 7 7 8 8 8 7 5 5 5 5 5 5 5 5 7 8 8 8 8 7 7 7 6 5 6 5 3 1 1 2 4 4 7 10 11 11 10 8 7 7 7 7
10 11 12 13 14 15 16 19 19 18 23 28 29 28 28 28 27 27 27 27 26 25 24 23 21 20 18 17 15 12 11 9 8 10 11 10 10 9 9 8 7 7 6 5 6 7 8 7 7 6 5 4 4 4 5 6 6 7 8 8 8 8 8 7 7 6 5 6 8 5 1 4 5 3 3 5 9 11 11 11 12 13 13 14 13
8 9 11 13 15 16 17 18 19 22 26 30 31 30 30 30 30 30 30 29 28 26 25 23 23 21 20 19 17 14 13 11 10 10 10 10 9 9 7 7 6 6 5 4 5 6 7 7 6 6 5 4 3 4 4 5 6 7 8 8 8 8 8 7 7 7 6 6 7 5 4 8 8 5 3 5 6 7 11 14 16 18 19 19 18
9 9 11 13 15 18 19 18 21 29 32 31 32 32 32 32 33 33 31 30 28 27 26 25 24 23 21 18 16 15 13 13 12 10 9 9 8 8 7 7 7 7 6 5 6 6 6 5 5 4 4 3 3 4 5 5 6 8 9 9 8 7 6 6 7 8 7 8 7 5 5 7 7 5 4 5 6 6 8 12 17 22 25 23 20
10 10 11 12 15 17 18 18 21 27 28 27 29 32 33 32 32 32 32 31 30 27 27 26 25 22 20 18 16 15 13 13 13 12 10 9 7 7 7 7 7 6 5 5 6 7 6 5 3 3 4 4 5 5 5 6 6 7 9 9 8 7 6 6 7 7 7 9 8 6 6 7 6 6 6 6 6 6 6 8 12 18 21 20 19
10 10 8 7 9 10 10 10 9 2 6 7 2 7 20 28 32 33 31 30 30 28 27 26 24 22 19 17 16 15 14 13 13 12 11 9 8 7 6 5 5 4 4 4 5 6 5 3 3 3 5 6 6 7 7 6 6 7 8 8 7 7 7 5 6 7 7 9 9 8 8 8 7 7 7 6 6 5 7 8 9 12 13 14 15
7 6 5 6 8 8 8 8 8 8 11 12 16 19 11 5 15 26 32 31 29 28 28 27 24 21 19 16 14 13 11 11 11 11 10 9 9 8 7 5 4 3 3 4 4 4 3 2 3 5 7 8 8 8 7 6 6 6 7 7 7 7 7 7 7 8 8 9 9 8 8 7 7 6 6 6 6 7 8 9 9 10 11 11 12
5 5 7 8 9 10 10 10 12 13 12 12 6 5 13 15 13 5 12 23 28 28 27 26 24 21 18 15 13 11 9 8 7 8 8 8 8 8 7 6 5 4 4 4 4 4 4 3 4 6 7 8 9 8 7 7 7 8 9 9 9 8 9 10 10 10 11 11 11 10 9 8 7 7 6 6 6 9 10 10 10 9 9 9 9
6 7 7 7 7 7 8 8 10 13 15 19 20 15 11 9 9 12 12 9 15 23 24 22 21 20 17 15 13 10 8 6 6 6 7 7 7 8 8 7 6 5 5 6 5 5 4 4 4 5 6 7 7 7 6 7 9 11 12 12 12 13 13 13 13 13 13 14 13 12 11 10 9 9 9 9 8 10 11 11 9 8 8 9 7
6 7 7 6 7 8 10 10 8 6 7 15 21 20 18 18 18 14 11 13 12 8 10 10 10 11 13 13 12 10 9 7 6 7 7 6 7 7 7 7 7 7 7 6 6 4 3 4 4 5 5 6 6 6 6 8 10 12 12 12 13 14 14 14 14 14 13 12 12 12 12 12 12 11 11 10 9 9 11 13 10 7 8 9 8
7 8 9 9 10 12 12 12 9 4 4 11 16 20 19 19 20 20 19 12 9 10 2 5 7 9 11 11 11 11 11 9 8 8 7 7 7 7 6 7 7 7 7 6 5 4 3 4 4 4 5 5 6 6 7 9 10 10 10 10 12 12 12 12 12 12 12 11 11 12 14 13 13 13 12 10 8 8 11 14 13 9 7 7 7
8 9 10 10 12 13 12 8 5 5 9 16 18 19 19 19 20 17 13 11 6 6 8 11 14 16 16 14 14 13 12 10 10 10 8 7 8 7 6 6 6 6 7 6 4 3 4 5 4 4 4 4 5 6 8 9 8 8 9 10 11 12 11 12 12 12 12 12 12 13 15 15 14 14 13 13 13 12 11 10 9 8 7 6 5
9 9 10 10 11 13 9 6 6 6 10 16 17 18 19 19 18 13 11 11 12 16 21 20 19 19 18 15 14 14 11 9 8 8 8 7 9 8 6 6 6 6 6 5 3 3 4 5 5 4 4 4 5 6 7 7 6 7 9 11 11 11 11 12 13 13 13 13 13 15 16 16 15 15 14 14 14 15 13 10 6 5 5 5 4
7 7 7 5 7 10 8 7 5 4 7 10 11 13 16 16 14 14 14 16 19 21 22 18 16 18 17 15 16 16 14 10 6 5 5 4 6 9 8 6 7 7 7 6 4 4 5 6 5 5 5 5 6 6 7 6 7 8 10 11 11 11 12 12 13 13 13 14 14 16 16 16 15 14 12 12 11 12 13 12 11 8 5 4 4
6 6 6 4 4 4 4 3 3 5 7 6 6 9 11 11 12 15 17 20 21 22 20 18 19 21 21 22 22 20 18 15 11 9 7 3 4 10 10 8 7 7 8 7 6 5 5 5 5 5 6 6 6 7 8 7 8 9 10 10 10 11 11 12 12 12 12 13 14 14 14 14 13 11 10 9 9 10 9 10 11 10 9 8 6
7 6 6 7 7 5 3 3 1 2 4 6 6 7 9 10 12 17 19 21 22 23 23 24 25 24 22 23 23 21 19 16 13 13 12 8 9 12 11 9 8 7 7 8 8 7 6 5 5 5 5 6 6 6 7 7 8 8 9 9 9 10 10 10 11 11 10 11 11 11 11 10 9 8 8 8 8 8 9 8 9 9 10 9 7
7 6 7 8 8 6 6 8 8 7 4 4 6 8 10 11 13 17 20 22 23 24 25 25 25 24 23 24 23 20 18 16 14 14 14 11 10 11 12 11 10 8 7 8 8 8 7 6 5 5 5 4 4 4 5 5 6 7 7 7 8 8 8 9 9 9 9 9 9 9 8 7 7 6 6 7 7 7 8 8 8 8 8 8 7
7 7 7 8 9 9 10 12 11 10 8 8 9 9 11 12 14 17 19 21 22 24 24 24 24 23 23 25 23 18 15 15 16 17 15 10 9 11 11 12 12 11 9 8 9 10 9 8 7 6 5 5 4 4 4 4 4 4 4 4 5 5 5 6 6 7 7 8 8 7 6 6 5 5 5 5 6 7 7 7 7 7 7 7 7
9 9 9 10 11 12 12 13 13 12 10 8 8 8 9 11 13 16 18 19 20 21 22 23 23 22 23 24 20 15 14 15 17 19 17 13 12 13 12 13 14 14 12 11 10 10 10 10 9 8 7 6 5 5 4 3 3 2 2 1 1 2 2 2 3 4 5 5 5 5 4 4 4 4 4 4 5 5 6 6 6 6 7 7 7
11 11 10 12 13 13 12 13 13 12 10 8 6 6 7 9 11 13 15 17 17 18 20 22 22 22 23 22 18 16 17 19 22 22 20 17 16 14 13 13 15 16 15 14 13 13 12 12 10 9 8 7 6 6 6 5 5 4 4 3 3 3 4 4 3 3 3 3 4 4 4 4 4 4 5 4 4 5 5 5 6 6 6 6 6
12 12 12 13 13 13 13 13 13 12 11 9 6 5 5 7 9 11 14 15 15 16 18 21 21 22 22 20 17 18 21 24 25 22 18 16 15 14 13 14 15 16 16 15 15 15 15 14 12 10 9 8 6 6 6 5 4 4 4 4 5 5 6 7 7 7 7 6 6 6 6 6 6 7 7 7 6 6 6 6 5 5 5 4 4
12 12 12 12 12 13 14 14 15 15 13 11 8 5 4 4 6 8 10 12 14 15 16 19 21 21 21 19 19 21 23 25 25 21 16 14 14 13 12 13 15 16 16 15 15 16 16 15 13 11 9 7 6 4 4 3 2 2 3 4 6 7 8 9 9 10 10 10 10 10 9 10 10 10 10 10 10 9 8 8 7 6 5 4 3
12 12 12 12 12 14 16 17 17 16 14 13 11 9 6 3 3 5 6 7 10 13 14 17 19 20 20 21 22 23 25 26 26 23 17 15 15 14 14 14 15 16 17 16 15 15 15 14 13 11 9 7 5 2 1 2 2 3 5 7 8 9 11 12 12 12 12 13 13 13 13 13 13 13 13 13 13 13 12 11 10 9 8 6 5
14 13 13 14 13 13 16 18 18 17 17 16 15 13 10 6 2 2 6 6 7 10 12 14 16 18 20 21 23 24 26 27 28 25 22 20 18 17 16 15 16 17 17 16 15 15 15 14 12 11 10 7 5 2 2 3 4 6 8 9 10 11 12 13 12 13 14 15 16 15 15 16 16 15 15 15 16 16 15 14 13 12 10 9 7
15 15 14 14 13 13 16 18 18 19 19 18 18 17 15 10 6 2 4 7 8 10 11 13 15 17 19 20 22 23 25 27 27 25 24 24 22 20 18 16 17 17 16 15 14 14 13 13 13 12 11 9 7 6 6 6 9 12 12 10 11 12 13 13 13 14 16 17 17 16 17 17 18 17 16 16 16 18 18 18 16 14 13 12 9
15 14 13 13 13 15 17 18 18 19 19 18 17 17 17 15 10 5 1 2 6 9 11 13 14 16 17 17 18 20 22 24 25 24 24 25 24 23 21 19 19 21 19 16 14 13 13 14 14 14 14 13 13 14 11 10 13 15 15 15 15 15 15 16 16 16 17 17 16 17 18 18 18 18 17 15 15 16 18 20 19 16 15 14 12
14 13 13 14 14 16 17 18 18 18 18 18 17 17 18 19 16 9 4 2 1 4 8 11 12 13 14 15 16 17 19 21 23 24 24 24 24 25 24 22 23 25 23 18 15 16 17 16 16 18 18 17 19 21 18 15 16 17 18 19 18 17 17 17 16 15 15 15 15 16 17 16 16 16 16 15 14 13 15 18 19 18 16 14 12
13 13 14 14 14 15 16 16 17 17 18 19 19 19 20 21 21 17 11 5 3 1 4 6 8 11 13 13 12 12 13 14 17 19 22 23 24 25 25 26 26 26 23 19 18 22 25 26 27 28 25 21 23 24 21 17 18 19 18 17 16 15 14 13 13 13 13 14 14 15 15 14 13 13 13 13 13 11 12 15 18 17 15 13 11
12 12 12 12 12 14 15 15 16 17 18 20 21 22 23 23 23 21 18 13 9 6 3 3 5 7 10 10 8 7 8 9 10 12 14 19 23 25 27 28 28 26 24 22 22 27 31 34 34 31 27 26 26 25 20 16 17 18 16 14 12 10 10 10 10 10 10 9 10 11 11 10 9 9 9 9 9 9 9 12 16 16 15 14 11
11 11 11 12 12 13 15 16 17 18 20 23 24 24 24 23 23 22 21 19 17 14 11 7 5 5 7 9 8 7 7 8 9 9 9 13 18 23 27 30 29 28 26 26 28 31 33 34 32 28 28 28 27 23 18 15 16 15 12 10 8 6 6 6 4 3 3 4 4 5 6 6 6 6 5 5 5 6 7 11 15 16 15 14 11
10 10 11 13 14 14 15 17 18 20 22 23 24 24 23 22 22 21 20 20 18 18 17 15 11 7 5 6 8 10 11 12 14 13 12 13 14 18 23 26 26 26 26 28 31 32 31 30 28 27 27 26 23 19 16 14 14 12 10 7 6 4 3 2 2 2 3 3 4 4 4 4 3 4 4 3 2 3 7 13 16 15 13 11 9
9 10 11 13 14 14 14 16 18 20 21 22 23 23 21 21 21 20 20 19 18 17 18 18 15 13 10 6 6 10 13 15 17 17 17 18 17 19 23 25 24 25 28 29 30 29 28 26 25 24 24 22 19 16 14 13 13 13 11 9 7 6 5 5 4 4 5 5 6 6 5 5 5 5 5 4 2 3 9 13 14 12 10 8 6
9 9 10 12 13 13 14 16 17 17 19 21 22 21 20 19 20 19 19 18 18 18 18 18 17 17 16 13 8 8 10 13 15 18 20 20 20 21 24 25 25 26 27 27 25 24 24 22 21 21 20 18 16 14 13 15 17 15 12 10 9 7 6 5 5 5 6 6 6 6 6 7 6 5 4 4 3 5 8 10 9 8 7 5 4
9 10 9 11 12 12 13 15 15 15 18 20 20 20 18 17 17 18 17 16 17 17 19 19 18 18 18 18 15 11 9 10 11 14 17 18 19 20 21 22 22 21 22 21 21 21 21 19 19 19 18 16 15 14 17 19 18 15 13 11 9 8 7 6 5 5 5 6 6 6 6 6 5 4 3 3 4 4 5 6 6 6 5 4 4
10 11 11 11 12 12 13 14 15 15 18 20 19 18 16 14 15 16 15 14 15 16 18 19 18 18 17 18 18 15 11 10 10 11 11 13 15 16 17 17 18 18 20 20 20 19 18 16 16 15 15 15 16 19 20 19 17 14 13 11 9 8 7 6 5 5 5 6 5 5 5 5 4 4 3 3 3 4 4 4 4 4 4 3 3
10 12 12 13 14 15 15 15 15 17 19 20 18 17 14 13 14 14 13 13 15 16 17 17 18 17 16 16 17 17 14 13 13 12 11 12 12 12 12 13 14 15 17 16 15 14 14 14 14 15 16 17 19 21 20 17 15 14 13 12 10 9 8 7 7 6 6 7 6 6 5 4 3 3 2 2 2 2 2 2 3 3 4 4 3
10 11 12 13 13 14 14 14 15 18 20 20 18 15 13 12 12 12 12 13 15 16 17 17 17 17 16 16 16 16 15 14 14 14 13 12 13 13 13 13 13 14 15 14 14 15 16 16 15 16 17 17 18 19 18 16 14 13 12 12 11 10 9 8 8 8 8 7 7 6 5 4 2 2 1 1 1 1 1 2 3 3 3 3 3
10 11 12 13 13 12 12 12 13 15 17 17 16 15 14 13 12 12 12 14 16 17 17 18 18 18 18 17 16 15 15 14 14 15 16 15 15 17 17 16 16 16 17 17 16 17 18 17 16 16 17 17 16 16 16 16 14 13 13 12 11 10 10 9 9 10 9 8 8 7 6 4 3 2 2 2 1 1 1 0 1 1 2 2 2
12 13 14 14 14 13 13 13 13 13 13 13 13 13 13 14 14 15 15 16 18 19 19 19 19 19 19 18 17 16 15 15 14 14 16 18 19 20 20 19 20 20 20 20 19 19 19 19 18 16 16 17 17 17 16 15 15 14 14 13 12 11 10 10 10 10 10 9 9 8 7 6 4 3 2 1 0 1 1 1 1 1 2 3 2
12 13 14 14 13 14 15 14 13 13 13 12 12 12 13 14 16 17 17 18 18 19 20 21 20 20 20 19 19 18 16 15 14 13 13 17 21 23 23 23 23 24 24 23 23 23 22 22 21 20 19 19 19 18 17 16 16 16 15 13 12 11 10 9 9 10 11 11 10 10 8 6 4 2 1 0 1 1 1 1 1 2 3 3 3
11 12 13 13 13 14 15 15 15 14 13 12 11 12 14 16 16 16 17 18 18 18 19 20 20 20 21 21 20 20 18 15 14 13 12 12 16 22 25 25 25 25 27 27 27 26 27 26 25 24 23 21 21 20 19 18 17 16 15 13 12 11 10 9 10 11 12 12 11 10 8 6 4 3 2 2 2 2 2 1 1 3 3 4 4
12 13 14 14 15 14 15 16 16 15 14 13 12 12 15 16 16 16 17 18 18 17 17 18 20 21 23 23 22 21 21 18 15 14 13 12 12 15 20 24 26 26 28 30 31 29 28 28 27 26 25 23 22 21 20 19 18 17 16 14 13 12 11 10 11 13 13 12 10 9 7 6 5 4 4 4 3 2 1 1 3 4 4 4 4
13 15 16 16 16 16 16 18 18 17 16 15 15 14 15 17 17 17 17 17 18 18 17 18 18 19 20 21 20 22 23 21 18 16 15 15 14 12 11 16 23 26 27 28 30 30 29 29 27 26 25 24 23 23 22 22 21 19 17 16 14 13 13 13 14 15 14 12 11 9 8 7 6 5 4 3 3 2 1 2 3 4 4 4 5
14 16 16 16 17 17 18 19 19 19 18 18 19 18 18 19 20 19 19 19 19 18 18 18 17 17 17 17 18 20 21 20 19 18 16 15 16 16 14 14 17 20 22 22 24 27 28 27 26 26 26 24 23 23 23 21 20 19 19 18 17 16 15 15 16 16 15 13 11 10 9 8 7 5 4 3 3 2 1 2 2 2 3 4 6
16 16 16 16 16 17 18 19 19 19 19 20 21 21 20 21 21 20 20 21 21 20 20 19 18 17 17 16 16 19 19 18 19 19 17 14 16 19 19 19 18 16 16 19 22 23 23 21 19 19 18 16 14 16 18 18 17 17 16 16 17 17 17 16 15 14 14 14 13 11 10 8 7 5 4 3 3 2 2 2 2 3 3 4 5
16 15 15 14 15 16 17 19 19 19 19 20 20 21 21 21 21 20 20 21 22 22 21 20 18 17 16 15 15 16 17 18 18 18 17 15 16 16 17 20 23 19 16 16 18 17 16 14 13 12 11 12 15 19 21 21 19 17 14 13 15 16 16 16 15 13 13 14 13 11 9 7 6 5 3 3 2 2 2 2 3 4 4 4 6
15 14 14 15 15 16 17 18 18 18 19 19 21 21 21 21 21 21 21 21 21 21 21 20 19 18 17 16 15 15 15 16 17 17 16 16 15 14 13 17 22 22 20 19 19 17 13 12 14 16 18 20 22 23 24 24 21 18 16 15 16 16 15 15 15 14 14 14 12 10 8 7 5 4 3 2 2 2 2 2 3 4 4 6 7
Wind_Direction
176 169 172 180 183 188 195 194 189 183 185 194 190 187 189 190 190 197 208 206 196 196 197 196 194 192 194 189 185 178 161 148 132 104 93 100 103 101 106 115 111 105 117 148 173 192 195 187 172 155 150 140 136 136 143 155 160 168 163 145 144 154 158 174 175 167 161 152 153 171 154 119 138 112 65 61 63 60 52 35 27 14 1 359 355
161 164 174 180 180 182 186 188 189 185 187 199 202 195 188 186 189 195 201 199 197 199 197 197 198 196 194 188 184 173 158 149 132 107 95 103 111 109 105 104 103 102 105 115 136 168 180 170 157 147 150 146 146 148 143 156 165 168 164 147 143 155 161 168 167 163 170 165 157 162 142 111 102 94 83 69 63 81 88 55 36 38 5 354 1
165 171 175 180 181 174 171 181 189 190 191 198 203 198 190 187 190 195 198 198 199 200 197 196 196 197 196 189 184 175 161 149 129 115 108 108 110 108 106 104 104 104 104 109 118 136 156 159 156 152 142 141 144 146 145 157 171 175 174 162 148 150 156 164 172 179 178 155 149 167 154 124 122 101 72 56 56 70 77 51 29 38 21 350 355
169 173 176 179 181 171 172 188 191 189 191 196 200 197 192 191 193 196 199 198 198 199 196 194 193 195 196 190 183 173 158 148 132 122 116 114 111 106 106 106 105 106 105 109 114 121 131 134 136 136 128 131 135 144 157 168 180 186 189 179 159 153 158 170 186 192 180 167 156 126 124 176 141 110 76 59 65 75 74 68 64 64 61 37 21
174 176 176 176 181 176 182 195 191 186 190 193 197 197 194 196 198 198 199 199 197 196 194 194 192 190 188 182 177 164 153 150 141 132 127 122 117 112 109 105 101 98 96 102 111 114 116 115 113 113 112 121 133 151 166 172 183 188 189 189 182 173 165 167 184 187 182 191 183 143 142 192 128 120 108 76 75 80 76 73 73 74 78 74 69
184 177 172 173 179 177 185 196 190 189 194 194 196 198 198 200 201 200 199 198 195 194 194 194 194 191 185 177 172 165 157 158 152 144 139 130 122 119 112 104 98 94 91 98 114 116 114 113 111 112 115 123 142 156 165 170 177 181 181 184 187 182 169 161 170 175 177 190 187 181 167 143 139 141 142 107 91 81 68 67 70 77 84 80 74
192 178 172 175 177 177 188 196 194 196 198 197 197 199 201 203 202 199 197 195 193 193 195 196 195 193 190 184 179 173 164 160 161 153 145 137 128 125 116 110 109 108 110 119 128 124 117 116 116 122 127 131 152 163 162 163 167 170 170 171 175 175 170 164 165 170 167 166 175 176 144 147 160 166 155 146 127 90 69 71 75 82 88 83 75
192 184 180 180 179 181 189 194 198 202 202 199 200 201 203 203 201 197 194 193 193 194 197 199 198 195 192 188 178 171 165 159 160 157 147 140 130 124 117 116 117 115 117 126 141 141 125 114 116 129 135 128 139 154 157 156 157 164 166 168 170 171 172 170 170 173 163 148 153 156 139 149 163 165 160 158 147 122 91 83 80 81 83 80 76
194 193 190 185 183 184 188 195 202 207 207 204 202 201 200 199 197 194 192 192 193 197 199 200 200 197 194 189 174 163 161 156 156 155 148 142 132 123 117 117 118 117 116 121 139 143 126 104 96 124 142 134 129 136 142 146 151 161 167 173 176 173 172 168 166 168 159 150 152 149 136 134 131 129 134 134 132 134 125 112 98 86 78 72 71
200 199 192 172 167 174 184 191 192 187 13 14 351 210 200 197 194 190 190 192 194 196 198 198 198 197 196 191 177 163 158 155 152 150 147 143 137 129 122 120 115 115 120 123 133 133 123 111 89 111 139 135 130 133 135 141 149 160 168 176 179 173 169 163 153 152 152 155 156 147 138 133 128 124 124 126 125 128 132 134 124 104 87 73 67
198 184 150 119 127 148 158 156 132 78 39 23 13 7 353 250 200 190 188 190 194 196 196 196 195 196 196 192 182 169 162 161 159 156 153 148 142 137 134 133 123 119 126 125 128 123 115 115 101 113 133 135 131 132 133 133 136 144 153 160 166 168 166 156 143 139 142 149 153 150 147 140 138 137 138 142 141 139 138 136 127 114 105 93 76
170 142 132 129 135 145 145 140 136 139 157 172 172 354 345 341 340 308 201 192 192 194 196 196 195 194 195 191 185 179 175 175 176 172 166 156 146 141 139 138 129 126 132 127 126 123 110 103 109 123 132 136 134 130 125 120 117 121 127 130 134 141 147 145 140 138 138 142 145 148 145 134 130 132 138 144 144 144 143 137 132 125 114 107 100
150 140 138 136 134 126 119 120 128 139 155 166 175 193 215 240 291 324 321 273 211 196 197 198 195 193 191 188 186 185 186 190 195 188 174 163 154 147 140 138 132 127 135 135 129 124 115 111 121 128 129 132 135 132 127 121 117 117 116 117 120 124 129 133 134 136 137 138 139 138 134 126 123 126 129 129 129 136 139 136 133 131 123 117 114
138 128 119 111 96 84 73 67 74 97 159 178 181 188 196 200 210 224 253 288 297 254 207 189 177 175 177 181 184 186 190 195 201 194 178 166 159 152 142 136 135 134 139 141 133 122 118 124 131 132 130 134 138 136 131 126 123 121 117 117 118 120 124 128 131 135 136 136 137 135 131 124 119 119 119 121 127 135 141 141 135 127 125 123 114
122 115 110 102 93 90 81 70 64 49 276 233 200 188 192 198 206 209 206 223 291 317 282 154 147 153 164 181 190 192 195 195 193 187 179 172 164 156 148 139 138 143 147 145 136 125 124 136 143 143 143 143 142 139 135 133 131 128 125 124 124 126 130 132 134 136 134 134 136 133 127 121 118 117 114 112 115 129 142 146 144 140 134 132 125
121 118 113 111 111 109 105 109 141 188 231 241 222 197 194 202 208 207 189 179 202 262 242 203 186 178 176 188 195 193 192 189 182 175 171 174 171 164 159 154 151 156 158 153 145 135 135 145 154 157 153 145 141 141 140 140 139 136 135 132 131 134 135 134 134 134 132 132 134 131 126 121 118 115 110 104 102 110 129 145 155 156 149 141 136
131 130 126 132 130 119 123 168 195 203 220 232 225 203 198 205 203 184 162 167 190 225 233 218 195 179 173 179 185 182 176 171 171 171 167 170 180 182 177 174 175 176 175 169 161 148 139 144 150 148 145 136 135 143 147 147 144 139 136 131 130 133 132 130 130 130 131 132 133 130 125 120 117 111 105 100 96 98 105 108 116 139 150 150 139
113 105 108 120 124 124 152 197 211 223 231 233 226 212 206 205 188 166 174 195 202 210 215 203 177 164 166 179 186 177 158 141 138 162 157 144 183 200 196 190 191 192 194 191 184 169 147 140 138 130 122 116 119 128 135 137 133 130 128 124 125 126 124 122 123 126 128 129 129 127 123 119 116 112 105 99 96 95 95 94 90 87 92 111 126
48 55 67 57 61 101 153 203 245 256 263 266 245 224 215 204 182 177 191 202 198 192 191 189 179 173 180 190 190 178 158 145 144 160 163 151 214 220 211 201 196 197 202 202 196 184 162 144 134 122 112 108 111 116 119 120 120 121 119 118 119 121 120 117 117 119 121 123 124 123 122 121 117 113 109 103 100 100 99 96 91 85 84 85 93
43 52 65 66 57 50 67 85 84 268 272 265 244 223 212 199 184 185 191 190 186 183 184 188 185 182 188 190 186 180 171 168 167 170 182 202 224 227 219 211 202 197 202 203 201 196 178 158 140 125 114 106 102 110 117 114 110 112 113 114 117 119 119 117 118 119 119 121 124 125 125 125 120 115 113 109 107 107 107 106 100 94 91 88 82
57 61 70 75 74 68 67 75 77 78 94 167 188 192 193 185 177 181 185 183 182 181 182 186 185 188 196 195 190 186 185 188 190 190 201 215 227 232 226 219 211 200 200 202 203 203 191 178 167 151 138 127 116 116 120 116 110 111 113 116 121 124 123 124 126 128 130 131 133 135 136 133 127 123 120 117 116 116 114 111 109 105 99 93 90
58 61 65 64 59 51 50 54 60 68 79 108 137 156 165 167 171 176 179 179 180 182 184 188 189 195 203 199 192 190 193 195 196 206 223 236 244 247 237 226 218 207 204 205 204 203 197 191 188 184 180 173 168 158 143 135 128 122 119 119 127 135 134 130 131 135 141 143 142 144 144 141 137 134 133 133 131 132 131 125 120 118 112 101 97
56 53 53 54 48 42 46 48 46 46 49 70 104 126 145 161 174 178 181 184 184 185 188 191 194 200 201 197 193 196 200 200 203 216 233 242 249 254 247 233 225 215 207 206 208 206 201 199 199 199 200 197 196 194 183 177 175 169 172 174 176 187 184 171 154 151 156 159 159 163 168 167 162 160 159 159 155 150 148 144 134 125 119 107 98
54 53 49 50 49 43 44 46 46 45 42 49 75 106 138 163 175 182 189 192 189 191 193 195 200 201 197 196 200 203 206 210 212 219 231 238 241 246 246 235 227 222 214 207 206 206 202 201 202 202 203 203 203 204 204 208 214 220 230 244 266 272 269 266 258 241 224 214 204 201 212 217 211 208 205 199 192 181 167 160 152 136 127 114 98
53 53 48 46 46 42 40 42 42 43 42 46 62 92 130 158 175 185 193 194 193 197 199 200 201 200 200 205 207 209 216 218 216 220 233 240 238 240 242 237 231 229 222 211 204 203 202 200 199 197 193 191 192 197 204 213 224 238 250 263 278 286 288 283 278 274 268 263 258 247 243 243 241 239 234 229 224 212 199 192 183 166 152 139 117
56 55 52 49 46 43 42 43 42 39 36 37 44 59 95 141 168 182 192 197 199 201 202 204 204 205 211 216 213 214 220 221 219 225 236 243 244 244 244 241 235 231 226 218 207 201 201 199 196 191 182 176 176 182 196 211 234 279 303 309 307 304 304 300 294 289 282 277 273 267 261 255 250 250 250 247 242 233 226 223 218 205 193 179 162
58 55 53 51 48 46 44 44 43 40 38 38 38 39 43 68 149 181 196 207 210 209 207 207 209 212 217 219 217 219 221 222 226 232 241 249 249 245 244 244 238 231 226 220 210 203 201 197 188 176 165 159 154 144 192 227 243 309 330 330 324 318 314 308 303 299 295 290 285 278 272 267 260 258 258 256 251 244 239 235 230 222 213 201 188
57 52 51 48 45 43 43 43 42 41 40 41 41 41 41 37 36 207 211 217 221 219 217 217 217 220 224 225 225 224 223 225 230 238 249 257 255 243 238 238 236 230 222 215 210 204 198 193 188 179 169 161 156 163 265 258 267 299 312 320 324 319 311 305 301 299 297 292 288 284 280 277 274 271 268 264 258 251 245 236 229 225 220 211 198
56 52 50 49 45 43 41 41 40 39 39 39 39 43 45 42 33 2 233 226 225 223 224 228 231 234 238 238 235 232 230 232 237 244 250 254 252 240 230 232 233 225 214 206 203 200 197 197 200 201 196 196 208 220 235 261 279 291 293 297 308 309 304 302 301 295 288 284 282 280 279 280 282 281 277 272 265 258 250 241 234 230 224 215 204
56 53 51 49 47 45 43 41 39 37 37 37 37 39 42 44 44 38 0 243 232 228 228 233 239 244 248 247 242 239 238 240 244 248 248 247 242 232 226 228 226 213 203 198 198 202 206 206 208 214 220 232 239 233 234 259 274 274 270 269 281 294 297 296 293 285 279 278 277 276 277 278 280 280 279 276 271 263 254 246 243 242 235 222 213
53 50 49 47 43 41 39 38 36 34 34 35 34 35 39 42 45 46 40 25 276 238 232 236 242 248 251 250 247 245 243 245 246 246 244 239 232 226 223 221 215 209 207 212 221 226 224 224 232 242 246 246 240 234 238 253 260 255 251 254 268 286 292 287 282 278 276 277 278 279 279 277 276 276 276 277 274 268 258 246 241 243 241 232 223
48 46 44 43 40 38 35 32 31 30 30 29 29 32 34 36 40 46 48 44 26 315 253 250 253 254 253 250 250 249 246 246 246 243 240 234 226 222 218 212 209 211 215 223 232 234 235 238 242 247 250 245 234 230 234 244 246 243 244 254 267 279 281 277 277 279 280 281 282 284 286 284 281 278 275 276 274 269 261 243 232 232 230 223 220
45 43 41 39 36 34 31 29 29 27 27 28 29 31 32 32 36 43 47 47 42 33 1 304 287 276 259 247 243 246 242 239 239 238 236 229 223 219 215 212 212 215 221 224 221 223 231 236 235 237 240 237 229 226 229 236 237 236 243 254 260 262 265 271 276 280 283 288 290 292 294 294 290 281 276 279 278 270 255 233 221 218 213 209 213
43 39 35 33 29 28 26 25 25 24 24 27 28 29 30 31 32 36 40 42 42 41 38 24 350 319 279 253 241 236 230 227 228 229 230 227 222 219 217 216 215 216 222 224 217 218 227 230 229 229 229 227 226 225 226 231 232 231 235 239 236 236 248 259 270 290 312 320 316 313 311 306 298 291 287 288 285 270 240 214 204 201 201 204 212
38 33 29 25 21 21 20 17 19 21 21 22 22 22 24 26 27 28 29 30 32 33 34 34 30 18 340 284 261 249 237 227 224 224 227 230 227 222 218 217 217 222 227 224 218 219 225 225 225 224 223 223 224 222 224 228 222 210 200 194 188 183 177 149 99 64 47 38 28 17 3 350 342 335 330 326 304 244 205 192 189 190 196 205 217
32 27 24 21 17 16 17 17 19 21 18 16 14 14 16 17 19 20 18 18 19 19 19 21 22 18 11 347 289 265 252 241 234 233 237 241 241 233 225 224 229 235 235 227 221 222 224 223 223 220 218 218 218 217 218 211 192 178 169 162 152 139 123 109 99 89 79 66 55 50 46 38 29 19 15 21 49 163 181 182 183 189 197 209 225
35 30 27 26 19 14 17 21 23 21 15 11 8 7 8 10 11 11 8 6 7 8 8 7 5 1 358 353 333 288 264 253 244 240 242 244 244 238 231 228 230 234 232 227 223 223 221 218 219 219 215 213 211 207 196 180 170 166 164 158 148 138 127 116 106 94 80 71 64 59 57 55 50 46 49 64 96 151 179 186 191 197 203 211 227
34 29 27 25 19 13 13 15 16 15 10 5 3 2 2 2 2 2 1 358 358 360 359 356 353 351 347 344 338 317 285 270 262 251 245 243 241 239 236 230 226 228 232 230 226 223 218 213 216 218 213 206 198 183 172 169 169 167 163 157 152 147 138 125 109 95 85 79 71 64 61 64 69 80 98 119 137 158 179 192 198 198 196 201 217
27 24 18 13 11 8 7 8 8 5 2 359 358 358 356 354 352 350 350 351 351 350 348 345 342 341 338 336 334 324 302 282 277 268 253 242 237 233 230 228 224 225 230 229 223 218 212 205 203 200 192 184 176 168 168 171 172 167 161 157 155 151 145 137 127 116 107 98 89 83 80 80 89 103 114 131 145 155 166 179 185 175 165 179 211
17 14 7 2 1 -0 359 -0 358 354 351 351 352 352 348 345 343 341 341 343 341 338 336 334 330 329 329 329 329 326 313 292 278 268 252 235 225 215 210 213 215 217 217 211 199 191 183 174 170 168 167 169 168 168 171 174 171 167 164 161 160 157 156 156 151 141 131 123 118 111 106 102 99 103 109 114 134 159 172 170 164 154 157 181 215
6 2 358 354 353 353 351 349 347 346 345 345 344 342 338 335 333 330 331 333 332 328 326 324 322 321 321 322 324 325 318 301 281 265 251 229 207 195 191 190 193 198 195 184 175 172 166 161 163 165 165 167 169 170 171 170 170 170 168 167 166 164 163 166 163 155 146 139 135 128 122 118 111 112 127 131 145 162 165 166 164 164 181 204 221
355 351 353 349 343 342 343 341 341 341 341 340 338 332 327 324 321 318 321 323 323 321 319 319 318 317 315 314 316 319 319 308 290 268 252 232 207 195 189 184 184 189 187 180 175 174 168 164 166 168 167 167 169 171 171 170 171 174 173 173 174 171 170 174 173 166 157 152 150 146 141 145 153 156 155 151 144 131 117 141 174 200 245 262 270
348 346 347 345 339 336 337 336 336 336 335 335 332 325 321 317 311 310 313 315 314 314 313 312 311 310 310 307 307 310 313 313 305 281 254 237 219 202 192 189 190 189 184 178 174 171 167 165 166 169 171 170 170 171 173 174 175 178 179 178 177 176 175 176 174 170 165 161 159 157 155 158 161 162 156 142 107 17 4 0 348 319 303 311 323
342 341 342 340 335 331 329 329 329 330 330 328 323 317 312 306 304 306 309 309 308 307 307 304 302 302 301 300 300 301 304 310 311 296 267 242 225 209 198 195 195 190 183 176 172 170 167 165 167 170 173 174 173 172 175 178 180 180 179 176 174 171 170 170 170 169 167 165 164 162 161 162 164 165 165 124 61 33 28 41 0 328 326 335 342
335 336 337 336 330 326 323 324 325 327 325 321 316 308 300 296 298 302 305 305 304 303 300 298 296 295 294 294 294 293 295 301 303 297 283 258 232 214 203 197 195 191 186 179 174 172 171 170 171 173 174 175 175 175 175 176 177 175 172 170 168 164 163 164 164 165 165 164 164 163 162 163 166 158 142 123 110 102 86 54 341 335 345 349 341
335 335 336 333 328 325 322 320 320 321 320 315 310 301 294 292 294 295 296 297 297 296 293 289 288 287 286 288 288 287 286 289 290 288 284 274 248 221 209 203 196 191 188 183 178 177 175 172 171 172 173 173 174 175 174 172 170 168 165 163 160 157 157 159 159 159 159 157 156 157 157 156 154 146 139 132 121 109 79 355 334 336 345 348 337
334 334 333 329 325 323 321 319 319 319 318 315 311 303 298 297 296 293 292 290 287 286 283 281 281 280 280 280 281 281 281 282 283 282 279 270 258 246 235 219 204 196 193 187 182 178 177 175 172 172 172 172 172 174 174 171 169 167 163 160 158 156 155 156 155 154 154 152 151 150 151 151 148 142 135 125 111 96 55 6 352 346 345 340 331
331 329 328 325 321 319 318 317 317 318 318 315 310 305 303 302 298 294 291 287 282 278 276 275 275 274 272 270 270 272 276 277 275 273 273 272 266 258 252 241 222 208 202 198 191 183 179 175 171 169 169 168 172 178 179 177 176 174 168 163 162 160 160 161 160 157 154 153 149 147 147 146 143 137 127 114 107 102 65 22 15 9 353 341 336
327 324 322 319 316 315 315 314 313 314 314 312 308 305 305 303 300 295 290 285 281 278 275 272 270 268 265 263 262 263 264 266 267 267 267 268 268 261 249 244 243 230 213 213 210 197 183 174 170 171 171 172 187 205 204 196 189 185 178 172 168 166 164 164 163 159 154 151 149 148 148 147 145 144 139 132 126 111 83 48 27 19 5 348 339
320 317 315 313 311 311 310 308 308 309 309 307 305 303 302 300 299 296 291 285 282 280 277 272 266 261 258 258 259 258 256 255 257 262 262 257 260 265 256 245 242 236 224 224 221 205 187 178 182 199 218 226 232 231 217 202 190 182 176 172 168 167 164 160 157 156 155 154 152 151 151 153 156 156 151 143 129 94 83 66 28 10 356 342 335
318 317 316 315 314 314 310 307 308 309 309 307 304 301 298 296 294 292 288 283 279 276 274 272 267 261 258 258 259 258 257 254 249 250 255 251 248 255 257 247 238 229 220 222 223 218 219 227 232 240 243 235 230 223 209 195 183 173 168 165 163 161 159 156 155 155 156 156 155 154 156 159 160 155 142 127 108 84 71 46 15 356 342 335 329